Regional Weather Roundup
Issued by NWS

Home | Current Version | Previous Version | Text Only | Print | Product List | Glossary Off
Versions: 1 2 3 4 5 6 7 8 9 10 11 12 13 14 15 16 17 18 19 20 21 22 23 24 25 26 27 28 29 30 31 32 33 34 35 36 37 38 39 40 41 42 43 44 45 46 47 48 49 50

000
ASUS43 KOAX 290602
RWRNE

WEATHER ROUNDUP FOR NEBRASKA
NATIONAL WEATHER SERVICE OMAHA NE
100 AM CDT SUN MAR 29 2015

NOTES: SATELLITE DATA IS BEING USED TO AUGMENT CLOUD COVER ABOVE
       12000 FEET.
       "FAIR" INDICATES FEW OR NO CLOUDS BELOW 12,000 FEET WITH NO
       SIGNIFICANT WEATHER AND/OR OBSTRUCTIONS TO VISIBILITY.

  * THESE STATIONS DO NOT REPORT WEATHER SUCH AS RAIN...SNOW OR FOG.

NEZ001>004-019>022-054>056-290700-
NEBRASKA PANHANDLE

CITY           SKY/WX    TMP DP  RH WIND       PRES   REMARKS
SCOTTSBLUFF    CLEAR     54  31  41 NW15      29.97R
6HR MIN TEMP:  54; 6HR MAX TEMP:  80;

ALLIANCE       CLEAR     55  36  48 N18       29.92R
6HR MIN TEMP:  55; 6HR MAX TEMP:  79;

CHADRON        CLEAR     54  29  38 W16       29.93R
6HR MIN TEMP:  54; 6HR MAX TEMP:  81;

KIMBALL        MOCLDY    55  28  36 N18       29.98R
SIDNEY         MOCLDY    61  28  28 NW25G33   29.93R
6HR MIN TEMP:  61; 6HR MAX TEMP:  78;

$$

NEZ057>060-069>072-079>082-290700-
SOUTHWEST NEBRASKA

CITY           SKY/WX    TMP DP  RH WIND       PRES   REMARKS
NORTH PLATTE   MOCLDY    60  38  43 SE8G17    29.78R
6HR MIN TEMP:  58; 6HR MAX TEMP:  74; 6HR PCP: TRACE;

IMPERIAL       CLOUDY    74  26  16 W18G25    29.83R
6HR MIN TEMP:  63; 6HR MAX TEMP:  81;

MCCOOK         PTCLDY    64  39  39 SW14G22   29.84R
6HR MIN TEMP:  62; 6HR MAX TEMP:  77;

$$

NEZ005>010-023>029-035>040-094-290700-
NORTH CENTRAL NEBRASKA

CITY           SKY/WX    TMP DP  RH WIND       PRES   REMARKS
VALENTINE      PTCLDY    58  39  49 N23G30    29.82R
6HR MIN TEMP:  58; 6HR MAX TEMP:  77; 6HR PCP: TRACE;

AINSWORTH      MOCLDY    62  40  44 NW16G30   29.80R
BROKEN BOW     MOCLDY    58  39  49 S20G28    29.71F
6HR MIN TEMP:  53; 6HR MAX TEMP:  68; 6HR PCP: TRACE;

ORD            PTCLDY    51  35  54 S18G29    29.74F
6HR MIN TEMP:  50; 6HR MAX TEMP:  62;

$$

NEZ041-046>049-061>064-073>077-083>087-290700-
SOUTH CENTRAL NEBRASKA

CITY           SKY/WX    TMP DP  RH WIND       PRES   REMARKS
GRAND ISLAND   CLEAR     49  36  61 S23G29    29.83R
6HR MIN TEMP:  47; 6HR MAX TEMP:  60;

AURORA         CLEAR     46  35  65 S18G24    29.82S
HASTINGS       CLEAR     50  37  61 S13G25    29.83R
6HR MIN TEMP:  49; 6HR MAX TEMP:  62;

HEBRON         CLEAR     46  35  64 S16G23    29.87F
KEARNEY *      PTCLDY    52  37  58 S13       29.85R
$$

NEZ011>018-030>034-042>045-290700-
NORTHEAST NEBRASKA

CITY           SKY/WX    TMP DP  RH WIND       PRES   REMARKS
NORFOLK        PTCLDY    46  34  62 S20G29    29.79S
6HR MIN TEMP:  45; 6HR MAX TEMP:  54;

ALBION         CLOUDY    47  33  59 S18G25    29.79S
BLAIR          CLEAR     44  32  61 S26G33    29.86F
COLUMBUS *     PTCLDY    45  30  57 S16       29.84F
TEKAMAH        CLEAR     43  31  62 SE28G41   29.86F
6HR MIN TEMP:  42; 6HR MAX TEMP:  54;

$$

NEZ050>053-065>068-078-088>093-290700-
SOUTHEAST NEBRASKA

CITY           SKY/WX    TMP DP  RH WIND       PRES   REMARKS
LINCOLN        CLEAR     44  33  65 S20       29.89F
6HR MIN TEMP:  44; 6HR MAX TEMP:  54;

OMAHA EPPLEY   CLEAR     43  32  65 S24G31    29.90F
6HR MIN TEMP:  43; 6HR MAX TEMP:  53;

BEATRICE       CLEAR     43  33  67 S15G24    29.89F
FALLS CITY     CLEAR     41  31  67 SE16      29.97F
6HR MIN TEMP:  38; 6HR MAX TEMP:  52;

NEBRASKA CITY  CLEAR     42  30  61 S21G26    29.93F
PLATTSMOUTH    CLEAR     41  30  65 SE20G26   29.91F
$$

NEZ044-045-051>053-067-290700-
OMAHA AREA

CITY           SKY/WX    TMP DP  RH WIND       PRES   REMARKS
OMAHA EPPLEY   CLEAR     43  32  65 S24G31    29.90F
6HR MIN TEMP:  43; 6HR MAX TEMP:  53;

BLAIR          CLEAR     44  32  61 S26G33    29.86F
OFFUTT AFB     PTCLDY    41  32  69 SE16      29.90F
PLATTSMOUTH    CLEAR     41  30  65 SE20G26   29.91F
WAHOO          FAIR      42  32  67 S17       29.87F
$$



USA.gov is the U.S. government's official web portal to all federal, state and local government web resources and services.